Torna al catalogo

ONEWEB-0675

AttivoComunicazioniPO
NORAD 55834·PAYLOAD·🇬🇧 United Kingdom

Lanciato Mar 9, 2023 da Cape Canaveral Space Force Station

Loading…

Prossimi Passaggi (prossime 24 ore)

TLE

AggiornatoSource: CelesTrak SupGP

Epoca: Sep 14, 2026, 09:24 UTC

1 55834C 23029AQ  26257.39183287  .00001081  00000+0  27040-2 0  2575
2 55834  87.9109 287.2055 0001681  95.3393  18.9016 13.19725454    15

Traccia ONEWEB-0675 in tempo reale con AllMySat

Download on the App Store